Time,TemperatureF,DewpointF,PressureIn,WindDirection,WindDirectionDegrees,WindSpeedMPH,WindSpeedGustMPH,Humidity,HourlyPrecipIn,Conditions,Clouds,dailyrainin,SoftwareType,DateUTC
2013-03-22 00:02:00,10.0,6.0,-100.00,NNW,335,2.0,12.0,84,0.00,,,0.04,,2013-03-22 06:02:00,
2013-03-22 00:13:00,10.0,6.0,-100.00,NNW,335,2.0,12.0,84,0.00,,,0.04,,2013-03-22 06:13:00,
2013-03-22 00:22:00,10.0,6.0,-100.00,NNW,335,2.0,12.0,84,0.00,,,0.04,,2013-03-22 06:22:00,
2013-03-22 00:52:00,9.0,5.0,-100.00,WSW,250,1.0,5.0,84,0.00,,,0.04,,2013-03-22 06:52:00,
2013-03-22 01:02:00,9.0,5.0,-100.00,WSW,250,1.0,5.0,84,0.00,,,0.04,,2013-03-22 07:02:00,
2013-03-22 01:12:00,9.0,5.0,-100.00,WSW,250,1.0,5.0,84,0.00,,,0.04,,2013-03-22 07:12:00,
2013-03-22 01:22:00,9.0,5.0,-100.00,WSW,250,1.0,5.0,84,0.00,,,0.04,,2013-03-22 07:22:00,
2013-03-22 01:52:00,9.0,5.0,-100.00,SSE,158,0.0,3.0,83,0.00,,,0.04,,2013-03-22 07:52:00,
2013-03-22 02:03:00,9.0,5.0,-100.00,SSE,158,0.0,3.0,83,0.00,,,0.04,,2013-03-22 08:03:00,
2013-03-22 02:12:00,9.0,5.0,-100.00,SSE,158,0.0,3.0,83,0.00,,,0.04,,2013-03-22 08:12:00,
2013-03-22 02:22:00,9.0,5.0,-100.00,SSE,158,0.0,3.0,83,0.00,,,0.04,,2013-03-22 08:22:00,
2013-03-22 02:52:00,8.0,4.0,-100.00,WSW,252,1.0,4.0,83,0.00,,,0.04,,2013-03-22 08:52:00,
2013-03-22 03:02:00,8.0,4.0,-100.00,WSW,252,1.0,4.0,83,0.00,,,0.04,,2013-03-22 09:02:00,
2013-03-22 03:12:00,8.0,4.0,-100.00,WSW,252,1.0,4.0,83,0.00,,,0.04,,2013-03-22 09:12:00,
2013-03-22 03:22:00,8.0,4.0,-100.00,WSW,252,1.0,4.0,83,0.00,,,0.04,,2013-03-22 09:22:00,
2013-03-22 03:53:00,9.0,5.0,-100.00,ESE,103,2.0,4.0,83,0.00,,,0.04,,2013-03-22 09:53:00,
2013-03-22 04:12:00,9.0,5.0,-100.00,ESE,103,2.0,4.0,83,0.00,,,0.04,,2013-03-22 10:12:00,
2013-03-22 04:22:00,9.0,5.0,-100.00,ESE,103,2.0,4.0,83,0.00,,,0.04,,2013-03-22 10:22:00,
2013-03-22 04:52:00,10.0,6.0,-100.00,NNW,347,2.0,4.0,84,0.00,,,0.04,,2013-03-22 10:52:00,
2013-03-22 05:03:00,10.0,6.0,-100.00,NNW,347,2.0,4.0,84,0.00,,,0.04,,2013-03-22 11:03:00,
2013-03-22 05:12:00,10.0,6.0,-100.00,NNW,347,2.0,4.0,84,0.00,,,0.04,,2013-03-22 11:12:00,
2013-03-22 05:22:00,10.0,6.0,-100.00,NNW,347,2.0,4.0,84,0.00,,,0.04,,2013-03-22 11:22:00,
2013-03-22 05:52:00,9.0,5.0,-100.00,North,355,3.0,6.0,83,0.00,,,0.04,,2013-03-22 11:52:00,
2013-03-22 06:02:00,9.0,5.0,-100.00,North,355,3.0,6.0,83,0.00,,,0.04,,2013-03-22 12:02:00,
2013-03-22 06:12:00,9.0,5.0,-100.00,North,355,3.0,6.0,83,0.00,,,0.04,,2013-03-22 12:12:00,
2013-03-22 06:22:00,9.0,5.0,-100.00,North,355,3.0,6.0,83,0.00,,,0.04,,2013-03-22 12:22:00,
2013-03-22 06:52:00,8.0,4.0,-100.00,SSW,204,1.0,4.0,83,0.00,,,0.04,,2013-03-22 12:52:00,
2013-03-22 07:02:00,8.0,4.0,-100.00,SSW,204,1.0,4.0,83,0.00,,,0.04,,2013-03-22 13:02:00,
2013-03-22 07:12:00,8.0,4.0,-100.00,SSW,204,1.0,4.0,83,0.00,,,0.04,,2013-03-22 13:12:00,
2013-03-22 07:22:00,8.0,4.0,-100.00,SSW,204,1.0,4.0,83,0.00,,,0.04,,2013-03-22 13:22:00,
2013-03-22 07:52:00,10.0,6.0,-100.00,SSW,195,7.0,10.0,82,0.00,,,0.04,,2013-03-22 13:52:00,
2013-03-22 08:02:00,10.0,6.0,-100.00,SSW,195,7.0,10.0,82,0.00,,,0.04,,2013-03-22 14:02:00,
2013-03-22 08:12:00,10.0,6.0,-100.00,SSW,195,7.0,10.0,82,0.00,,,0.04,,2013-03-22 14:12:00,
2013-03-22 08:22:00,10.0,6.0,-100.00,SSW,195,7.0,10.0,82,0.00,,,0.04,,2013-03-22 14:22:00,
2013-03-22 08:52:00,14.0,7.0,-100.00,SSW,195,5.0,12.0,72,0.00,,,0.04,,2013-03-22 14:52:00,
2013-03-22 09:03:00,14.0,7.0,-100.00,SSW,195,5.0,12.0,72,0.00,,,0.04,,2013-03-22 15:03:00,
2013-03-22 09:12:00,14.0,7.0,-100.00,SSW,195,5.0,12.0,72,0.00,,,0.04,,2013-03-22 15:12:00,
2013-03-22 09:22:00,14.0,7.0,-100.00,SSW,195,5.0,12.0,72,0.00,,,0.04,,2013-03-22 15:22:00,
2013-03-22 09:53:00,19.0,9.0,-100.00,WSW,256,6.0,11.0,65,0.00,,,0.04,,2013-03-22 15:53:00,
2013-03-22 10:03:00,19.0,9.0,-100.00,WSW,256,6.0,11.0,65,0.00,,,0.04,,2013-03-22 16:03:00,
2013-03-22 10:13:00,19.0,9.0,-100.00,WSW,256,6.0,11.0,65,0.00,,,0.04,,2013-03-22 16:13:00,
2013-03-22 10:22:00,19.0,9.0,-100.00,WSW,256,6.0,11.0,65,0.00,,,0.04,,2013-03-22 16:22:00,
2013-03-22 10:52:00,22.0,11.0,-100.00,WSW,242,5.0,13.0,61,0.02,,,0.06,,2013-03-22 16:52:00,
2013-03-22 11:03:00,22.0,11.0,-100.00,WSW,242,5.0,13.0,61,0.02,,,0.06,,2013-03-22 17:03:00,
2013-03-22 11:12:00,22.0,11.0,-100.00,WSW,242,5.0,13.0,61,0.02,,,0.06,,2013-03-22 17:12:00,
2013-03-22 11:23:00,22.0,11.0,-100.00,WSW,242,5.0,13.0,61,0.02,,,0.06,,2013-03-22 17:23:00,
2013-03-22 12:02:00,22.0,9.0,-100.00,West,265,10.0,15.0,56,0.00,,,0.03,,2013-03-22 18:02:00,
2013-03-22 12:12:00,22.0,9.0,-100.00,West,265,10.0,15.0,56,0.00,,,0.03,,2013-03-22 18:12:00,
2013-03-22 12:22:00,22.0,9.0,-100.00,West,265,10.0,15.0,56,0.00,,,0.03,,2013-03-22 18:22:00,
2013-03-22 12:52:00,23.0,7.0,-100.00,WSW,254,12.0,18.0,50,0.00,,,0.02,,2013-03-22 18:52:00,
2013-03-22 13:02:00,23.0,7.0,-100.00,WSW,254,12.0,18.0,50,0.00,,,0.02,,2013-03-22 19:02:00,
2013-03-22 13:12:00,23.0,7.0,-100.00,WSW,254,12.0,18.0,50,0.00,,,0.02,,2013-03-22 19:12:00,
2013-03-22 13:22:00,23.0,7.0,-100.00,WSW,254,12.0,18.0,50,0.00,,,0.02,,2013-03-22 19:22:00,
2013-03-22 13:52:00,22.0,7.0,-100.00,West,272,12.0,20.0,52,0.00,,,0.02,,2013-03-22 19:52:00,
2013-03-22 14:02:00,22.0,7.0,-100.00,West,272,12.0,20.0,52,0.00,,,0.02,,2013-03-22 20:02:00,
2013-03-22 14:12:00,22.0,7.0,-100.00,West,272,12.0,20.0,52,0.00,,,0.02,,2013-03-22 20:12:00,
2013-03-22 14:22:00,22.0,7.0,-100.00,West,272,12.0,20.0,52,0.00,,,0.02,,2013-03-22 20:22:00,
2013-03-22 14:52:00,20.0,6.0,-100.00,West,271,15.0,26.0,55,0.00,,,0.02,,2013-03-22 20:52:00,
2013-03-22 15:03:00,20.0,6.0,-100.00,West,271,15.0,26.0,55,0.00,,,0.02,,2013-03-22 21:03:00,
2013-03-22 15:12:00,20.0,6.0,-100.00,West,271,15.0,26.0,55,0.00,,,0.02,,2013-03-22 21:12:00,
2013-03-22 15:22:00,20.0,6.0,-100.00,West,271,15.0,26.0,55,0.00,,,0.02,,2013-03-22 21:22:00,
2013-03-22 15:53:00,20.0,11.0,-100.00,West,273,7.0,17.0,66,0.00,,,0.02,,2013-03-22 21:53:00,
2013-03-22 16:03:00,20.0,11.0,-100.00,West,273,7.0,17.0,66,0.00,,,0.02,,2013-03-22 22:03:00,
2013-03-22 16:12:00,20.0,11.0,-100.00,West,273,7.0,17.0,66,0.00,,,0.02,,2013-03-22 22:12:00,
2013-03-22 16:23:00,20.0,11.0,-100.00,West,273,7.0,17.0,66,0.00,,,0.02,,2013-03-22 22:23:00,
2013-03-22 16:53:00,16.0,11.0,-100.00,WSW,254,7.0,11.0,82,0.00,,,0.02,,2013-03-22 22:53:00,
2013-03-22 17:02:00,16.0,11.0,-100.00,WSW,254,7.0,11.0,82,0.00,,,0.02,,2013-03-22 23:02:00,
2013-03-22 17:12:00,16.0,11.0,-100.00,WSW,254,7.0,11.0,82,0.00,,,0.02,,2013-03-22 23:12:00,
2013-03-22 17:22:00,16.0,11.0,-100.00,WSW,254,7.0,11.0,82,0.00,,,0.02,,2013-03-22 23:22:00,
2013-03-22 17:52:00,14.0,10.0,-100.00,WNW,288,8.0,13.0,84,0.00,,,0.02,,2013-03-22 23:52:00,
2013-03-22 18:02:00,14.0,10.0,-100.00,WNW,288,8.0,13.0,84,0.00,,,0.02,,2013-03-23 00:02:00,
2013-03-22 18:12:00,14.0,10.0,-100.00,WNW,288,8.0,13.0,84,0.00,,,0.02,,2013-03-23 00:12:00,
2013-03-22 18:23:00,14.0,10.0,-100.00,WNW,288,8.0,13.0,84,0.00,,,0.02,,2013-03-23 00:23:00,
2013-03-22 18:52:00,14.0,10.0,-100.00,SSW,203,4.0,25.0,83,0.00,,,0.02,,2013-03-23 00:52:00,
2013-03-22 19:03:00,14.0,10.0,-100.00,SSW,203,4.0,25.0,83,0.00,,,0.02,,2013-03-23 01:03:00,
2013-03-22 19:12:00,14.0,10.0,-100.00,SSW,203,4.0,25.0,83,0.00,,,0.02,,2013-03-23 01:12:00,
2013-03-22 19:22:00,14.0,10.0,-100.00,SSW,203,4.0,25.0,83,0.00,,,0.02,,2013-03-23 01:22:00,
2013-03-22 19:52:00,12.0,9.0,-100.00,West,281,4.0,7.0,86,0.00,,,0.02,,2013-03-23 01:52:00,
2013-03-22 20:02:00,12.0,9.0,-100.00,West,281,4.0,7.0,86,0.00,,,0.02,,2013-03-23 02:02:00,
2013-03-22 20:12:00,12.0,9.0,-100.00,West,281,4.0,7.0,86,0.00,,,0.02,,2013-03-23 02:12:00,
2013-03-22 20:22:00,12.0,9.0,-100.00,West,281,4.0,7.0,86,0.00,,,0.02,,2013-03-23 02:22:00,
2013-03-22 20:52:00,11.0,7.0,-100.00,West,271,2.0,7.0,84,0.00,,,0.02,,2013-03-23 02:52:00,
2013-03-22 21:02:00,11.0,7.0,-100.00,West,271,2.0,7.0,84,0.00,,,0.02,,2013-03-23 03:02:00,
2013-03-22 21:12:00,11.0,7.0,-100.00,West,271,2.0,7.0,84,0.00,,,0.02,,2013-03-23 03:12:00,
2013-03-22 21:22:00,11.0,7.0,-100.00,West,271,2.0,7.0,84,0.00,,,0.02,,2013-03-23 03:22:00,
2013-03-22 21:53:00,11.0,7.0,-100.00,West,275,5.0,8.0,85,0.00,,,0.02,,2013-03-23 03:53:00,
2013-03-22 22:02:00,11.0,7.0,-100.00,West,275,5.0,8.0,85,0.00,,,0.02,,2013-03-23 04:02:00,
2013-03-22 22:12:00,11.0,7.0,-100.00,West,275,5.0,8.0,85,0.00,,,0.02,,2013-03-23 04:12:00,
2013-03-22 22:23:00,11.0,7.0,-100.00,West,275,5.0,8.0,85,0.00,,,0.02,,2013-03-23 04:23:00,
2013-03-22 22:53:00,11.0,7.0,-100.00,SW,218,3.0,6.0,84,0.00,,,0.02,,2013-03-23 04:53:00,
2013-03-22 23:02:00,11.0,7.0,-100.00,SW,218,3.0,6.0,84,0.00,,,0.02,,2013-03-23 05:02:00,
2013-03-22 23:12:00,11.0,7.0,-100.00,SW,218,3.0,6.0,84,0.00,,,0.02,,2013-03-23 05:12:00,
2013-03-22 23:22:00,11.0,7.0,-100.00,SW,218,3.0,6.0,84,0.00,,,0.02,,2013-03-23 05:22:00,
2013-03-22 23:52:00,11.0,7.0,-100.00,SE,137,3.0,4.0,84,0.00,,,0.02,,2013-03-23 05:52:00,